Tonopah, NV

11:24 AM PDT on July 22, 2017 (GMT -0700)
Tonopah

Weather History for KTPH - November, 2011

Change the Weather History Date:

Tuesday, November 1, 2011

  Actual Average Record
Temperature  
Mean Temperature 37 °F 46 °F  
Max Temperature 47 °F 61 °F 73 °F (2009)
Min Temperature 26 °F 32 °F 13 °F (1956)
Degree Days  
Heating Degree Days 28 19  
Month to date heating degree days 28 19  
Since 1 July heating degree days 420 491  
Cooling Degree Days 0 0  
Month to date cooling degree days 0 0  
Year to date cooling degree days 736 783  
Moisture  
Dew Point 10 °F    
Average Humidity 53    
Maximum Humidity 72    
Minimum Humidity 34    
Precipitation  
Precipitation 0.00 in 0.01 in 0.37 in (1974)
Month to date precipitation 0.00 0.01  
Year to date precipitation 8.38 4.50  
Sea Level Pressure  
Sea Level Pressure 30.12 in    
Wind  
Wind Speed 17 mph (North)    
Max Wind Speed 29 mph    
Max Gust Speed 37 mph    
Visibility 10 miles    
Events      
T = Trace of Precipitation, MM = Missing Value Source: NWS Daily Summary

Daily Weather History Graph

Daily Weather History Graph

Search for Another Location

Airport or City:

Trip Planner

Search our weather history database for the weather conditions in past years. The results will help you decide how hot, cold, wet, or windy it might be!

Date:

Astronomy

Nov. 01, 2011 Rise Set
Actual Time 7:13 AM PDT 5:49 PM PDT
Civil Twilight 6:46 AM PDT 6:16 PM PDT
Nautical Twilight 6:15 AM PDT 6:47 PM PDT
Astronomical Twilight 5:44 AM PDT 7:18 PM PDT
Moon 1:02 PM PDT (11/1) 11:37 PM PDT (11/1)
Length of Visible Light 11h 29m
Length of Day
10h 35m
Waxing Crescent, 41% of the Moon is Illuminated
Nov 1
Waxing Crescent
Nov 2
First Quarter
Nov 10
Full
Nov 18
Last Quarter
Nov 24
New

Hourly Weather History & Observations

Time (PDT) Temp. Windchill Dew Point Humidity Pressure Visibility Wind Dir Wind Speed Gust Speed Precip Events Conditions
12:56 AM 37.9 °F 32.7 °F 15.1 °F 39% 29.94 in 10.0 mi North 6.9 mph - N/A   Clear
1:56 AM 37.9 °F 32.1 °F 17.1 °F 43% 29.94 in 10.0 mi North 8.1 mph - N/A   Clear
2:56 AM 37.9 °F 32.7 °F 17.1 °F 43% 29.92 in 10.0 mi North 6.9 mph - N/A   Clear
3:56 AM 51.1 °F - 28.0 °F 41% 29.87 in 10.0 mi NNE 11.5 mph 21.9 mph N/A   Clear
4:56 AM 46.0 °F - 28.0 °F 50% 29.89 in 10.0 mi Calm Calm - N/A   Clear
5:38 AM 46.4 °F 39.5 °F 30.2 °F 53% 30.02 in 10.0 mi North 17.3 mph 26.5 mph N/A   Clear
6:56 AM 43.0 °F 33.3 °F 28.0 °F 56% 29.97 in 10.0 mi NNW 25.3 mph 31.1 mph N/A   Clear
7:56 AM 39.9 °F 29.2 °F 24.1 °F 53% 30.03 in 10.0 mi NW 25.3 mph 35.7 mph N/A   Clear
8:56 AM 43.0 °F 34.2 °F 25.0 °F 49% 30.07 in 10.0 mi NNW 20.7 mph 33.4 mph N/A   Clear
9:56 AM 46.0 °F 37.0 °F 25.0 °F 44% 30.08 in 10.0 mi NNW 27.6 mph 39.1 mph N/A   Clear
10:56 AM 48.0 °F - 24.1 °F 39% 30.14 in 10.0 mi NNW 29.9 mph 38.0 mph N/A   Clear
11:56 AM 48.9 °F - 23.0 °F 36% 30.16 in 10.0 mi NNW 28.8 mph 36.8 mph N/A   Clear
2:56 PM 52.0 °F - 8.1 °F 17% 30.16 in 10.0 mi North 21.9 mph 28.8 mph N/A   Clear
3:56 PM 52.0 °F - -2.9 °F 10% 30.14 in 10.0 mi North 24.2 mph 31.1 mph N/A   Clear
4:56 PM 50.0 °F - -9.0 °F 8% 30.19 in 10.0 mi North 18.4 mph 24.2 mph N/A   Clear
5:56 PM 45.0 °F 38.9 °F -9.9 °F 10% 30.24 in 10.0 mi North 12.7 mph - N/A   Clear
6:56 PM 41.0 °F 32.8 °F -9.0 °F 12% 30.28 in 10.0 mi North 16.1 mph - N/A   Clear
7:56 PM 39.9 °F 31.8 °F -11.9 °F 11% 30.30 in 10.0 mi North 15.0 mph - N/A   Clear
8:56 PM 36.0 °F 27.1 °F -11.9 °F 13% 30.31 in 10.0 mi NNE 13.8 mph - N/A   Clear
9:56 PM 33.1 °F 24.4 °F -6.0 °F 19% 30.32 in 10.0 mi NNE 11.5 mph - N/A   Clear
10:56 PM 30.9 °F 21.2 °F -4.0 °F 22% 30.35 in 10.0 mi North 12.7 mph - N/A   Clear
11:56 PM 32.0 °F 23.0 °F -2.0 °F 23% 30.36 in 10.0 mi North 11.5 mph - N/A   Clear